Effective Sunday, March 17, 2024, the National Weather Service National Data Buoy Center will discontinue its Dial-A-Buoy Interactive Voice Response system. For more information, see Service Change Notice 24-06 (PDF).

Station DULM5 - 9099064 - Duluth, MN Image indicating link to RSS feed of recent meteorological observations for station DULM5


Conditions at DULM5 as of
(9:30 pm CST on 02/20/2024)
0330 GMT on 02/21/2024:
     

Click on the graph icon in the table below to see a time series plot of the last five days of that observation.

5-day plot - Wind Direction Wind Direction (WDIR):WSW ( 250 deg true )
5-day plot - Wind Speed Wind Speed (WSPD): 1.9 kts
5-day plot - Wind Gust Wind Gust (GST): 1.9 kts
5-day plot - Atmospheric Pressure Atmospheric Pressure (PRES):29.87 in
5-day plot - Air Temperature Air Temperature (ATMP): 32.0 °F
5-day plot - Dew Point Dew Point (DEWP): 28.6 °F
5-day plot - Wind Speed at 10 Meters Wind Speed at 10 meters (WSPD10M): 1.9 kts
5-day plot - Wind Speed at 20 Meters Wind Speed at 20 meters (WSPD20M): 1.9 kts
5-day plot -  Wind Speed, Wind Gust and Atmospheric Pressure Combined plot of Wind Speed, Gust, and Air Pressure
NOS Water Level Observation Network Water Level
Previous observations
TIME
(CST)
5-day plot - Wind Direction
WDIR
 
5-day plot - Wind Speed
WSPD
kts
5-day plot - Wind Gust
GST
kts
5-day plot - Wave Height
WVHT
ft
5-day plot - Dominant Wave Period
DPD
sec
5-day plot - Average Wave Period
APD
sec
5-day plot - Mean Wave Direction
MWD
 
5-day plot - Atmospheric Pressure
PRES
in
5-day plot - Pressure Tendency
PTDY
in
5-day plot - Air Temperature
ATMP
°F
5-day plot - Water Temperature
WTMP
°F
5-day plot - Dew Point
DEWP
°F
5-day plot - Salinity
SAL
psu
5-day plot - Visibility
VIS
nmi
5-day plot - Tide (above MLLW)
TIDE
ft
2024-02-20 09:24 pm SW 1.0 1.9----29.87- 32.0- 28.6---
2024-02-20 09:18 pmWSW 1.0 2.9----29.87- 32.0- 28.4---
2024-02-20 09:12 pmWSW 1.9 2.9----29.87- 32.0- 28.4---
2024-02-20 09:06 pmWSW 1.9 1.9----29.87- 32.2- 28.6---
2024-02-20 09:00 pm- 0.0 1.0----29.87+0.00 32.2- 28.6---
2024-02-20 08:54 pm- 0.0 1.0----29.87- 32.0- 28.4---
2024-02-20 08:48 pm- 0.0 1.0----29.87- 32.0- 28.6---
2024-02-20 08:42 pm- 0.0 1.0----29.87- 32.2- 28.6---
2024-02-20 08:36 pm- 0.0 12.0----29.87- 32.4- 28.8---
2024-02-20 08:30 pm- 0.0 1.0----29.87- 32.5- 28.9---
2024-02-20 08:24 pm- 0.0 1.0----29.87- 32.7- 28.9---
2024-02-20 08:18 pm N 1.0 1.0----29.87- 32.9- 28.9---
2024-02-20 08:12 pm- 0.0 1.0----29.87- 33.3- 29.3---
2024-02-20 08:06 pm- 0.0 1.9----29.87- 33.8- 29.8---
2024-02-20 08:00 pmNNW 1.0 1.9----29.87+0.01 34.0- 30.0---
2024-02-20 07:54 pmNNW 1.0 1.9----29.88- 34.2- 30.2---
2024-02-20 07:48 pm N 1.9 1.9----29.88- 34.2- 30.2---
2024-02-20 07:42 pm N 1.9 2.9----29.88- 34.2- 30.4---
2024-02-20 07:36 pm N 1.0 1.9----29.88- 34.3- 30.6---
2024-02-20 07:30 pm N 1.9 4.1----29.88- 34.5- 30.9---
2024-02-20 07:24 pm N 2.9 4.1----29.88- 34.3- 30.9---
2024-02-20 07:18 pm N 2.9 2.9----29.88- 34.2- 30.7---
2024-02-20 07:12 pm N 1.9 2.9----29.88- 34.2- 30.9---
2024-02-20 07:06 pm N 1.9 2.9----29.88- 34.2- 30.9---
2024-02-20 07:00 pm N 2.9 2.9----29.88+0.02 34.0- 30.7---
2024-02-20 06:54 pm N 1.9 2.9----29.88- 34.2- 30.9---
2024-02-20 06:48 pmNNE 1.9 2.9----29.87- 34.2- 30.9---
2024-02-20 06:42 pmNNE 1.9 2.9----29.87- 34.2- 30.9---
2024-02-20 06:36 pmNNE 1.9 2.9----29.88- 34.2- 30.7---
2024-02-20 06:30 pmNNE 1.9 2.9----29.88- 34.2- 30.7---
2024-02-20 06:24 pmNNE 1.9 2.9----29.87- 34.3- 30.9---
2024-02-20 06:18 pmNNE 2.9 2.9----29.87- 34.3- 30.7---
2024-02-20 06:12 pmNNE 1.9 2.9----29.87- 34.3- 30.6---
2024-02-20 06:06 pmNNE 1.9 2.9----29.87- 34.3- 30.4---
2024-02-20 06:00 pmNNE 1.0 1.9----29.87+0.01 34.3- 30.2---
2024-02-20 05:54 pmNNE 1.0 2.9----29.87- 34.5- 30.2---
2024-02-20 05:48 pmNNE 1.9 2.9----29.87- 34.7- 30.2---
2024-02-20 05:42 pm NE 1.9 4.1----29.87- 34.7- 30.0---
2024-02-20 05:36 pm NE 1.9 2.9----29.87- 34.9- 30.0---
2024-02-20 05:30 pmNNE 1.9 2.9----29.86- 34.9- 29.8---
2024-02-20 05:24 pm NE 1.9 2.9----29.86- 35.1- 30.0---
2024-02-20 05:18 pm NE 1.9 2.9----29.86- 35.2- 30.2---
2024-02-20 05:12 pm NE 1.9 2.9----29.86- 35.1- 29.8---
2024-02-20 05:00 pm NE 1.9 4.1----29.86-0.01 35.4- 29.8---
2024-02-20 04:54 pm NE 2.9 5.1----29.86- 35.6- 29.7---
2024-02-20 04:48 pm NE 1.9 2.9----29.86- 36.0- 29.7---
2024-02-20 04:42 pmNNE 1.9 4.1----29.86- 36.3- 29.8---
2024-02-20 04:36 pm NE 1.9 4.1----29.86- 36.5- 30.0---
2024-02-20 04:30 pm NE 1.0 4.1----29.86- 36.5- 30.0---
2024-02-20 04:24 pm NE 2.9 4.1----29.86- 36.5- 29.8---
2024-02-20 04:18 pm NE 2.9 4.1----29.86- 36.1- 29.5---
2024-02-20 04:12 pm NE 1.9 4.1----29.86- 36.3- 29.5---
2024-02-20 04:06 pmNNE 1.9 4.1----29.86- 36.7- 29.8---
2024-02-20 04:00 pm NE 2.9 4.1----29.86-0.02 36.9- 29.7---
2024-02-20 03:54 pm NE 2.9 5.1----29.86- 37.0- 29.5---
2024-02-20 03:48 pmENE 2.9 4.1----29.86- 37.8- 30.0---
2024-02-20 03:42 pm NE 1.9 5.1----29.86- 37.6- 30.2---
2024-02-20 03:36 pm NE 2.9 5.1----29.86- 37.6- 30.2---
2024-02-20 03:30 pm NE 2.9 5.1----29.86- 37.6- 30.4---
2024-02-20 03:24 pm NE 2.9 5.1----29.86- 37.2- 30.2---
2024-02-20 03:18 pmENE 4.1 6.0----29.85- 36.3- 29.1---
2024-02-20 03:12 pmENE 5.1 7.0----29.85- 36.7- 29.3---
2024-02-20 03:06 pmENE 4.1 6.0----29.86- 36.7- 29.5---
2024-02-20 03:00 pmENE 6.0 7.0----29.86-0.06 36.5- 28.9---
2024-02-20 02:54 pmENE 6.0 8.0----29.86- 36.7- 29.1---
2024-02-20 02:48 pmENE 6.0 8.0----29.86- 36.5- 28.8---
2024-02-20 02:42 pmENE 5.1 7.0----29.86- 36.9- 28.9---
2024-02-20 02:36 pmENE 5.1 8.0----29.86- 36.9- 28.9---
2024-02-20 02:30 pmENE 5.1 8.0----29.86- 36.7- 28.9---
2024-02-20 02:24 pmENE 6.0 8.0----29.86- 36.5- 28.4---
2024-02-20 02:18 pmENE 6.0 8.0----29.87- 36.5- 28.2---
2024-02-20 02:12 pmENE 6.0 8.0----29.87- 36.3- 27.9---
2024-02-20 02:06 pmENE 6.0 8.0----29.87- 36.7- 28.0---
2024-02-20 02:00 pmENE 5.1 7.0----29.87-0.07 37.2- 28.0---
2024-02-20 01:54 pmENE 4.1 7.0----29.88- 37.6- 28.8---
2024-02-20 01:48 pm NE 5.1 7.0----29.87- 37.6- 29.3---
2024-02-20 01:42 pmENE 5.1 8.0----29.87- 37.6- 29.3---
2024-02-20 01:36 pm NE 5.1 8.0----29.87- 37.4- 28.9---
2024-02-20 01:30 pm NE 5.1 8.9----29.87- 37.4- 28.8---
2024-02-20 01:24 pmENE 5.1 8.9----29.87- 37.0- 28.6---
2024-02-20 01:18 pmENE 6.0 9.9----29.87- 36.5- 27.7---
2024-02-20 01:12 pmENE 8.0 9.9----29.87- 36.1- 27.5---
2024-02-20 01:06 pmENE 8.9 11.1----29.88- 36.1- 27.3---
2024-02-20 01:00 pmENE 8.0 9.9----29.88-0.07 36.1- 28.0---
2024-02-20 12:54 pmENE 8.0 9.9----29.88- 36.1- 27.5---
2024-02-20 12:48 pmENE 7.0 9.9----29.89- 36.1- 27.3---
2024-02-20 12:42 pmENE 8.0 9.9----29.89- 36.1- 27.0---
2024-02-20 12:36 pmENE 6.0 11.1----29.90- 36.1- 27.1---
2024-02-20 12:30 pm E 7.0 11.1----29.90- 36.1- 27.1---
2024-02-20 12:24 pm E 7.0 8.9----29.91- 36.3- 27.3---
2024-02-20 12:18 pm E 7.0 9.9----29.91- 36.3- 27.3---
2024-02-20 12:12 pm E 7.0 8.9----29.91- 36.5- 27.0---
2024-02-20 12:06 pm E 7.0 9.9----29.91- 36.3- 27.1---
2024-02-20 12:00 pm E 7.0 8.9----29.92-0.05 36.3- 27.3---
2024-02-20 11:54 am E 6.0 8.9----29.91- 36.7- 27.3---
2024-02-20 11:48 am E 5.1 9.9----29.92- 36.7- 27.7---
2024-02-20 11:42 am E 7.0 8.9----29.92- 36.1- 27.5---
2024-02-20 11:36 amENE 7.0 8.9----29.92- 36.0- 27.5---
2024-02-20 11:30 amENE 8.0 9.9----29.93- 35.4- 27.1---
2024-02-20 11:24 amENE 8.0 9.9----29.93- 35.2- 27.5---
2024-02-20 11:18 amENE 8.0 9.9----29.93- 35.1- 27.1---
2024-02-20 11:12 amENE 7.0 8.9----29.94- 35.1- 27.5---
2024-02-20 11:06 amENE 6.0 8.0----29.94- 34.9- 27.1---
2024-02-20 11:00 amENE 7.0 8.0----29.94-0.02 35.1- 27.0---
2024-02-20 10:54 amENE 6.0 8.0----29.94- 35.6- 27.9---
2024-02-20 10:48 amENE 6.0 8.0----29.95- 35.4- 27.7---
2024-02-20 10:42 amENE 2.9 7.0----29.95- 36.3- 28.0---
2024-02-20 10:36 am E 5.1 7.0----29.95- 35.6- 27.3---
2024-02-20 10:30 amENE 4.1 6.0----29.96- 35.6- 27.5---
2024-02-20 10:24 amENE 2.9 7.0----29.96- 35.6- 27.3---
2024-02-20 10:18 amENE 4.1 6.0----29.96- 36.0- 26.8---
2024-02-20 10:12 am E 1.9 4.1----29.96- 36.5- 27.1---
2024-02-20 10:06 am E 1.9 6.0----29.96- 35.6- 26.8---
2024-02-20 10:00 amENE 4.1 5.1----29.96-0.01 35.6- 26.2---
2024-02-20 09:54 amENE 2.9 6.0----29.96- 34.9- 25.9---
2024-02-20 09:48 amENE 1.9 5.1----29.96- 35.6- 26.8---
2024-02-20 09:42 am E 1.9 5.1----29.96- 35.4- 26.8---
2024-02-20 09:36 am E 2.9 6.0----29.96- 34.2- 25.7---
2024-02-20 09:30 am E 5.1 6.0----29.96- 34.3- 25.7---
2024-02-20 09:24 am E 5.1 6.0----29.96- 34.3- 26.2---
2024-02-20 09:18 am E 4.1 5.1----29.96- 34.5- 27.5---
2024-02-20 09:12 amESE 4.1 7.0----29.96- 33.8- 27.9---
2024-02-20 09:06 am E 5.1 7.0----29.96- 33.3- 27.1---
2024-02-20 09:00 am E 6.0 7.0----29.96-0.01 33.1- 27.0---
2024-02-20 08:54 amESE 6.0 7.0----29.96- 32.9- 27.0---
2024-02-20 08:48 am E 5.1 7.0----29.96- 32.7- 27.0---
2024-02-20 08:42 am E 6.0 8.0----29.96- 32.7- 27.0---
2024-02-20 08:36 am E 6.0 8.9----29.96- 32.7- 27.0---
2024-02-20 08:30 am E 7.0 8.9----29.96- 32.7- 27.3---
2024-02-20 08:24 am E 8.0 9.9----29.96- 32.7- 27.3---
2024-02-20 08:18 am E 7.0 8.9----29.97- 32.7- 27.7---
2024-02-20 08:12 am E 5.1 8.9----29.96- 32.7- 27.7---
2024-02-20 08:06 am E 8.0 9.9----29.97- 32.7- 27.9---
2024-02-20 08:00 am E 6.0 8.9----29.97-0.01 32.9- 28.2---
2024-02-20 07:54 am E 6.0 8.9----29.97- 32.7- 28.2---
2024-02-20 07:48 am E 7.0 9.9----29.97- 32.7- 27.9---
2024-02-20 07:42 am E 5.1 9.9----29.96- 32.7- 27.9---
2024-02-20 07:36 am E 7.0 9.9----29.96- 32.9- 28.2---
2024-02-20 07:30 am E 6.0 8.9----29.96- 33.1- 28.6---
2024-02-20 07:24 am E 4.1 8.9----29.96- 33.1- 28.6---
2024-02-20 07:18 am E 4.1 8.9----29.96- 33.3- 28.6---
2024-02-20 07:12 am E 4.1 9.9----29.97- 33.3- 28.4---
2024-02-20 07:06 am E 6.0 11.1----29.97- 33.3- 28.4---
2024-02-20 07:00 am E 8.0 13.0----29.97-0.02 33.3- 28.4---
2024-02-20 06:54 am E 6.0 13.0----29.97- 33.3- 28.4---
2024-02-20 06:48 am E 8.0 13.0----29.97- 33.3- 28.6---
2024-02-20 06:42 amENE 8.0 12.0----29.97- 33.3- 28.6---
2024-02-20 06:36 am E 8.9 12.0----29.97- 33.3- 28.6---
2024-02-20 06:30 amENE 8.0 12.0----29.97- 33.3- 28.6---
2024-02-20 06:24 am E 8.9 14.0----29.97- 33.3- 28.4---
2024-02-20 06:18 amENE 9.9 13.0----29.97- 33.1- 28.2---
2024-02-20 06:12 amENE 9.9 14.0----29.98- 33.1- 28.6---
2024-02-20 06:06 amENE 9.9 14.0----29.98- 33.1- 28.6---
2024-02-20 06:00 amENE 11.1 14.0----29.98-0.03 33.1- 28.4---
2024-02-20 05:54 amENE 12.0 14.0----29.98- 33.1- 28.6---
2024-02-20 05:48 amENE 12.0 14.0----29.98- 32.9- 28.4---
2024-02-20 05:42 amENE 11.1 15.0----29.98- 32.9- 28.6---
2024-02-20 05:36 am E 9.9 15.0----29.98- 32.9- 28.8---
2024-02-20 05:30 amENE 12.0 15.9----29.98- 32.9- 28.8---
2024-02-20 05:24 amENE 12.0 15.0----29.98- 32.7- 28.6---
2024-02-20 05:18 amENE 11.1 15.0----29.98- 32.7- 28.6---
2024-02-20 05:12 am E 11.1 15.9----29.98- 32.7- 28.6---
2024-02-20 05:06 amENE 13.0 17.1----29.98- 32.7- 28.6---
2024-02-20 05:00 amENE 9.9 15.9----29.98-0.03 32.5- 28.6---
2024-02-20 04:54 amENE 13.0 15.9----29.98- 32.5- 28.6---
2024-02-20 04:48 amENE 11.1 15.9----29.98- 32.5- 28.6---
2024-02-20 04:42 amENE 12.0 17.1----29.98- 32.5- 28.6---
2024-02-20 04:36 amENE 13.0 17.1----29.99- 32.5- 28.6---
2024-02-20 04:30 amENE 12.0 17.1----29.99- 32.5- 28.6---
2024-02-20 04:24 amENE 12.0 15.9----29.99- 32.5- 28.6---
2024-02-20 04:18 amENE 12.0 15.9----29.99- 32.5- 28.4---
2024-02-20 04:12 amENE 12.0 15.9----29.99- 32.5- 28.4---
2024-02-20 04:06 amENE 12.0 15.9----29.99- 32.5- 28.2---
2024-02-20 04:00 amENE 13.0 17.1----29.99-0.04 32.4- 28.0---
2024-02-20 03:54 amENE 12.0 15.9----29.99- 32.4- 28.0---
2024-02-20 03:48 amENE 12.0 18.1----29.99- 32.4- 28.0---
2024-02-20 03:42 amENE 12.0 17.1----29.99- 32.4- 27.9---
2024-02-20 03:36 amENE 11.1 17.1----29.99- 32.4- 27.7---
2024-02-20 03:30 amENE 12.0 15.9----29.99- 32.4- 27.7---
2024-02-20 03:24 amENE 9.9 17.1----29.99- 32.4- 27.5---
2024-02-20 03:18 amENE 11.1 15.9----30.00- 32.4- 27.3---
2024-02-20 03:12 am E 11.1 15.0----30.00- 32.4- 27.3---
2024-02-20 03:06 amENE 11.1 15.9----30.00- 32.2- 27.1---
2024-02-20 03:00 amENE 9.9 15.9----30.00-0.04 32.2- 27.1---
2024-02-20 02:54 amENE 12.0 15.0----30.00- 32.2- 27.1---
2024-02-20 02:48 am E 12.0 15.9----30.00- 32.2- 27.3---
2024-02-20 02:42 am E 8.9 14.0----30.01- 32.2- 27.5---
2024-02-20 02:36 am E 11.1 15.0----30.01- 32.2- 27.7---
2024-02-20 02:30 am E 11.1 15.0----30.01- 32.2- 27.7---
2024-02-20 02:24 am E 9.9 15.0----30.01- 32.2- 27.7---
2024-02-20 02:18 am E 11.1 15.9----30.01- 32.0- 27.5---
2024-02-20 02:12 am E 11.1 15.9----30.01- 32.0- 27.5---
2024-02-20 02:06 amENE 12.0 15.9----30.01- 31.8- 27.3---
2024-02-20 02:00 amENE 12.0 15.9----30.01-0.05 31.8- 27.3---
2024-02-20 01:54 amENE 9.9 14.0----30.01- 31.6- 27.0---
2024-02-20 01:48 amENE 12.0 15.9----30.02- 31.6- 27.0---
2024-02-20 01:42 amENE 8.9 17.1----30.02- 31.5- 26.8---
2024-02-20 01:36 amENE 11.1 15.0----30.02- 31.5- 26.8---
2024-02-20 01:30 am E 9.9 14.0----30.02- 31.3- 26.6---
2024-02-20 01:24 am E 8.9 15.9----30.02- 31.1- 26.4---
2024-02-20 01:18 am E 9.9 13.0----30.03- 31.1- 26.4---
2024-02-20 01:12 am E 12.0 15.9----30.03- 31.1- 26.4---
2024-02-20 01:06 amENE 12.0 15.0----30.03- 31.1- 26.4---
2024-02-20 01:00 amENE 9.9 14.0----30.03-0.04 30.9- 26.2---
2024-02-20 12:54 amENE 12.0 15.9----30.03- 30.9- 26.2---
2024-02-20 12:48 amENE 11.1 15.0----30.03- 30.9- 26.2---
2024-02-20 12:42 am E 8.9 14.0----30.03- 30.7- 26.1---
2024-02-20 12:36 am E 9.9 15.0----30.03- 30.7- 25.9---
2024-02-20 12:30 am E 8.0 14.0----30.03- 30.7- 25.9---
2024-02-20 12:24 amENE 9.9 14.0----30.04- 30.6- 25.7---
2024-02-20 12:18 am E 8.0 15.0----30.04- 30.6- 25.5---
2024-02-20 12:12 am E 8.9 14.0----30.04- 30.6- 25.5---
2024-02-20 12:06 am E 8.0 13.0----30.04- 30.6- 25.3---
2024-02-20 12:00 amENE 8.9 14.0----30.04-0.02 30.4- 25.2---
2024-02-19 11:54 pmENE 11.1 14.0----30.05- 30.6- 25.2---
2024-02-19 11:48 pmENE 9.9 14.0----30.05- 30.4- 24.8---
2024-02-19 11:42 pm E 8.9 12.0----30.05- 30.4- 24.8---
2024-02-19 11:36 pm E 7.0 12.0----30.05- 30.4- 24.6---
2024-02-19 11:30 pm E 6.0 13.0----30.06- 30.4- 24.6---
2024-02-19 11:24 pm E 5.1 14.0----30.06- 30.4- 24.4---
2024-02-19 11:18 pmENE 11.1 15.0----30.06- 30.4- 24.4---
2024-02-19 11:12 pm E 8.9 12.0----30.06- 30.2- 24.3---
2024-02-19 11:06 pm E 6.0 14.0----30.06- 30.4- 24.3---
2024-02-19 11:00 pm E 8.9 14.0----30.06+0.00 30.4- 24.1---
2024-02-19 10:54 pm E 6.0 13.0----30.06- 30.2- 23.9---
2024-02-19 10:48 pm E 7.0 12.0----30.06- 30.2- 23.9---
2024-02-19 10:42 pmENE 9.9 13.0----30.06- 30.2- 23.7---
2024-02-19 10:36 pm E 7.0 12.0----30.07- 30.2- 23.7---
2024-02-19 10:30 pm E 7.0 13.0----30.07- 30.2- 23.5---
2024-02-19 10:24 pm E 7.0 15.9----30.07- 30.2- 23.5---
2024-02-19 10:18 pm E 8.0 12.0----30.07- 30.2- 23.5---
2024-02-19 10:12 pm E 5.1 11.1----30.07- 30.2- 23.5---
2024-02-19 10:06 pm E 6.0 11.1----30.07- 30.2- 23.4---
2024-02-19 10:00 pm E 6.0 9.9----30.07+0.01 30.2- 23.5---
2024-02-19 09:54 pm E 6.0 13.0----30.07- 30.2- 23.4---